Volver al catálogo

OPS 4682 DEB

ActivoPO
NORAD 38401·DEBRIS·🇺🇸 United States

Lanzado Apr 3, 1965 desde Vandenberg Space Force Base

Loading…

Próximos Pases (próximas 24 horas)

TLE

ActualizadoSource: Space-Track

Época: Sep 14, 2026, 07:08 UTC

1 38401U 65027DE  26257.29760063  .00000327  00000-0  11326-2 0  9998
2 38401  90.2504  10.5796 0030172 315.1033  44.7646 12.95344371673911

Sigue OPS 4682 DEB en tiempo real con AllMySat

Download on the App Store